Simultaneous Nadir Overpasses (SNOs) Predictions

Prediction of SNOs between AQUA and GOES-15 Satellite Orbit:

Table of predicted SNOs for the next 14.0 days since TLE Epoch: 11/14/2014
Index Date Time (AQUA) AQUA Lat,Lon GOES-15 Lat,Lon Distance(km) Time Diff (sec)
1 11/15/2014 10:26:03 -0.33,-132.65 0.03,-134.46 204.89 80
2 11/15/2014 22:47:28 -0.77,-137.84 -0.01,-134.41 390.80 80
3 11/17/2014 22:35:19 -0.15,-134.90 -0.01,-134.32 66.00 80
4 11/19/2014 22:23:09 0.44,-131.94 -0.02,-134.21 258.29 80
5 11/20/2014 10:44:26 0.60,-137.11 -0.01,-134.21 329.36 80
6 11/22/2014 10:32:16 -0.01,-134.15 -0.00,-134.10 6.53 80
7 11/24/2014 10:20:05 -0.59,-131.19 0.01,-133.97 316.77 80
8 11/24/2014 22:41:29 -0.54,-136.37 0.02,-133.91 280.65 80
9 11/26/2014 22:29:18 0.07,-133.42 0.02,-133.78 41.44 80




NCC Satellite Simultaneous Nadir Overpasses (SNOs) Prediction Service
